LKCS Weather Reports


time (UTC)temp
F
wind
direction
speed
knots
gust
knots
rain 1hr
in
rain 24hr
in
rain mn
in
humidity
%
barometer
mb
20260507180306 57 330 2.6 0.0 0.00 0.00 0.00 62 1014.0
20260507173304 59 280 7.0 0.0 0.00 0.00 0.00 54 1013.0
20260507170306 61 270 7.8 0.0 0.00 0.00 0.00 48 1013.0
20260507163305 63 240 8.7 0.0 0.00 0.00 0.00 45 1013.0
20260507160241 63 240 11.3 0.0 0.00 0.00 0.00 48 1012.0
20260507153304 63 260 13.0 0.0 0.00 0.00 0.00 48 1012.0
20260507150240 63 250 7.0 0.0 0.00 0.00 0.00 48 1012.0
20260507143304 66 270 7.8 0.0 0.00 0.00 0.00 42 1012.0
20260507140254 63 280 5.2 0.0 0.00 0.00 0.00 45 1012.0
20260507133238 66 250 7.0 0.0 0.00 0.00 0.00 45 1013.0
20260507130315 61 280 6.1 0.0 0.00 0.00 0.00 51 1013.0
20260507123305 63 230 10.4 0.0 0.00 0.00 0.00 45 1013.0
20260507123018 63 230 10.4 0.0 0.00 0.00 0.00 45 1013.0
20260507120248 61 290 6.1 0.0 0.00 0.00 0.00 51 1013.0
20260507113237 61 270 8.7 0.0 0.00 0.00 0.00 51 1013.0
20260507110315 61 270 7.8 0.0 0.00 0.00 0.00 51 1013.0
20260507103306 63 280 7.8 0.0 0.00 0.00 0.00 51 1012.0
20260507100247 61 280 12.2 0.0 0.00 0.00 0.00 51 1012.0
20260507093237 61 270 10.4 0.0 0.00 0.00 0.00 51 1012.0
20260507090314 59 280 7.8 0.0 0.00 0.00 0.00 58 1012.0
20260507083305 61 280 7.0 0.0 0.00 0.00 0.00 55 1012.0
20260507080247 59 270 5.2 0.0 0.00 0.00 0.00 54 1011.0
20260507073230 57 260 7.0 0.0 0.00 0.00 0.00 58 1012.0
20260507070314 57 270 6.1 0.0 0.00 0.00 0.00 62 1012.0
20260507063305 55 220 7.0 0.0 0.00 0.00 0.00 66 1012.0
20260507060242 54 200 5.2 0.0 0.00 0.00 0.00 71 1011.0
20260507053231 52 210 4.3 0.0 0.00 0.00 0.00 81 1011.0
20260507050249 50 200 4.3 0.0 0.00 0.00 0.00 87 1011.0
20260507043231 48 240 4.3 0.0 0.00 0.00 0.00 93 1010.0
20260507040306 48 260 7.0 0.0 0.00 0.00 0.00 87 1010.0
20260507033231 50 260 4.3 0.0 0.00 0.00 0.00 87 1010.0
20260507030306 48 0 0.0 0.0 0.00 0.00 0.00 93 1010.0
20260507023231 52 0 2.6 0.0 0.00 0.00 0.00 81 1009.0
20260507020246 52 250 5.2 0.0 0.00 0.00 0.00 87 1009.0
20260507013305 54 0 1.7 0.0 0.00 0.00 0.00 87 1009.0
20260507010307 54 240 4.3 0.0 0.00 0.00 0.00 87 1009.0
20260507003305 55 280 4.3 0.0 0.00 0.00 0.00 82 1009.0
20260507000306 54 270 4.3 0.0 0.00 0.00 0.00 93 1009.0
20260506233304 54 0 1.7 0.0 0.00 0.00 0.00 93 1008.0
20260506230306 54 290 2.6 0.0 0.00 0.00 0.00 87 1008.0
20260506223304 55 290 4.3 0.0 0.00 0.00 0.00 82 1008.0
20260506220306 55 310 2.6 0.0 0.00 0.00 0.00 87 1007.0
20260506213238 54 260 5.2 0.0 0.00 0.00 0.00 93 1007.0
20260506210240 55 210 4.3 0.0 0.00 0.00 0.00 87 1007.0
20260506203304 55 0 2.6 0.0 0.00 0.00 0.00 93 1006.0
20260506200246 55 280 8.7 0.0 0.00 0.00 0.00 87 1006.0
20260506193305 57 270 13.0 0.0 0.00 0.00 0.00 87 1006.0
20260506191605 57 270 15.6 26.1 0.00 0.00 0.00 82 1006.0
20260506191304 57 270 17.4 0.0 0.00 0.00 0.00 82 1006.0
20260506190518 57 270 15.6 0.0 0.00 0.00 0.00 87 1005.0
20260506190306 59 280 12.2 0.0 0.00 0.00 0.00 82 1005.0
20260506183305 64 300 8.7 0.0 0.00 0.00 0.00 59 1003.0